Find Starlink 31946

NORAD ID: 59940 Int'l Des: 2024-106 Owner: SPXS Country: US Constellation: starlink operational
LEOCIRCULAR

リアルタイム位置

3D地球を読み込み中...

Starlink 31946について

説明を読み込み中...

次回通過

Passes for default location (London). Set your location on the main map for personalized predictions.

高度履歴

Loading altitude history...

軌道要素

1 59940U 24106U 26125.08771683 .00002984 00000-0 11788-3 0 9997
2 59940 43.0045 14.4009 0001298 276.7599 83.3105 15.27590140 99774
Epoch: May 5, 2026 • Age: 10 hours

現在のステータス

高度 490.8 km
速度 7.62 km/s
衛星直下点 -30.94°S, 179.47°W
打ち上げ日 Jun 1, 2024
運用期間 1.9 years
タイプ internet

技術仕様

分類 Payload
質量 730.00 kg
乾燥質量 700.00 kg
総質量 730.00 kg
長さ 0.30 m
直径 4.10 m
スパン 29.00 m
形状 Box + pan
製造者 SPXS
バスタイプ Starlink V2M
フェーズステータス In Orbit
所有者/国 SPXS/US

Most Searched